Home > Weather > Graz > Past weeks

Flag for Austria Weather for the Past 2 Weeks in Graz, Styria, Austria

Now
45 °F

Passing clouds.


Feels Like: 41 °F
Forecast: 28 / 46 °F
Wind: 6 mph from Southeast

Location: Graz-Thalerhof-Flughafen

Current Time: Feb 13, 2016 at 4:43:21 PM

Latest Report: Feb 13, 2016 at 3:50 PM


Visibility: N/A

Pressure: 29.36 "Hg

Humidity: 66%

Dew point: 34 °F

Location of GrazLocation

Historic Weather in Graz — Graph

°F

Graz Temperature Yesterday

Maximum temperature yesterday: 37 °F (at 3:20 PM)
Minimum temperature yesterday: 23 °F (at 4:20 AM)
Average temperature yesterday: 31 °F

High & Low Weather Summary for the Past Weeks

 TemperatureHumidityPressure
High59 °F (Feb 1, 3:20 PM)100% (Jan 29, 10:50 PM)30.42 "Hg (Jan 29, 10:50 PM)
Low23 °F (Feb 11, 6:20 AM)31% (Feb 4, 1:20 PM)29.27 "Hg (Feb 10, 3:20 AM)
Average39 °F80%29.92 "Hg
* Reported Jan 29 3:20 PM — Feb 13 3:20 PM, Graz, Weather by CustomWeather, © 2016

Note: Actual official high and low records may vary slightly from our data, if they occured in-between our weather recording intervals... More about our weather records

Advertising

Graz Weather History for the Previous 24 Hours

 ConditionsComfort  
Time TempWeatherWind HumidityBarometerVisibility
3:20 PM
Sat, Feb 13
45 °FPassing clouds.6 mph61%29.36 "HgN/A
2:50 PM45 °FPassing clouds.7 mph61%29.36 "HgN/A
2:20 PM45 °FPassing clouds.7 mph66%29.36 "HgN/A
1:50 PM45 °FPassing clouds.8 mph66%29.36 "HgN/A
1:20 PM45 °FPassing clouds.6 mph66%29.36 "HgN/A
12:50 PM43 °FPassing clouds.6 mph76%29.39 "HgN/A
12:20 PM41 °FPassing clouds.5 mph81%29.39 "HgN/A
11:50 AM39 °FPassing clouds.3 mph87%29.39 "HgN/A
11:20 AM37 °FPassing clouds.3 mph87%29.39 "HgN/A
10:50 AM36 °FFog.3 mph93%29.39 "Hg3 mi
10:20 AM34 °FFog.1 mph93%29.39 "Hg2 mi
9:50 AM34 °FFog.3 mph93%29.39 "Hg2 mi
9:20 AM32 °FIce fog.2 mph100%29.36 "Hg2 mi
8:50 AM34 °FFog.2 mph93%29.36 "Hg1 mi
8:20 AM32 °FIce fog.2 mph100%29.36 "Hg1 mi
7:50 AM32 °FIce fog.2 mph100%29.36 "Hg1 mi
7:20 AM32 °FIce fog.3 mph100%29.36 "Hg1 mi
6:50 AM32 °FIce fog.3 mph100%29.36 "Hg2 mi
6:20 AM32 °FIce fog.1 mph100%29.36 "Hg3 mi
5:50 AM32 °FIce fog.2 mph100%29.36 "Hg3 mi
5:20 AM32 °FLight snow. Ice fog.2 mph100%29.36 "Hg3 mi
4:50 AM32 °FLight snow. Passing clouds.2 mph100%29.39 "Hg1 mi
3:50 AM32 °FSnow. Passing clouds.2 mph100%29.39 "Hg1 mi
3:20 AM32 °FSnow. Passing clouds.2 mph100%29.39 "Hg1 mi
2:50 AM32 °FLight snow. Passing clouds.3 mph100%29.39 "Hg2 mi
2:20 AM34 °FLight snow. Passing clouds.No wind93%29.42 "Hg3 mi
1:50 AM34 °FLight rain. Passing clouds.3 mph93%29.42 "Hg4 mi
1:20 AM34 °FPassing clouds.1 mph93%29.42 "HgN/A
12:50 AM34 °FPassing clouds.2 mph93%29.45 "HgN/A
12:20 AM34 °FPassing clouds.No wind93%29.45 "HgN/A
11:50 PM
Fri, Feb 12
34 °FPassing clouds.1 mph93%29.47 "HgN/A
10:50 PM36 °FLow clouds.1 mph93%29.47 "HgN/A
10:20 PM34 °FLow clouds.3 mph100%29.50 "HgN/A
9:50 PM36 °FLow clouds.2 mph93%29.50 "HgN/A
9:20 PM36 °FLow clouds.3 mph93%29.50 "HgN/A
8:50 PM36 °FLow clouds.3 mph93%29.53 "HgN/A
7:50 PM36 °FLow clouds.8 mph93%29.56 "HgN/A
7:20 PM36 °FLow clouds.9 mph93%29.56 "HgN/A
6:50 PM36 °FPassing clouds.7 mph93%29.56 "HgN/A
6:20 PM36 °FPassing clouds.7 mph93%29.59 "HgN/A
5:50 PM36 °FMostly cloudy.7 mph93%29.59 "HgN/A
5:20 PM36 °FMostly cloudy.6 mph93%29.59 "HgN/A
4:50 PM36 °FBroken clouds.5 mph93%29.62 "HgN/A
4:20 PM37 °FBroken clouds.5 mph87%29.62 "HgN/A
Weather by CustomWeather, © 2016

See weather overviewHow to use our weather pages